Flag for Germany Weather past 2 weeks in Würzburg, Bavaria, Germany

Now
60 °F

Overcast.


Feels Like: 60 °F
Forecast: 58 / 68 °F
Wind: 2 mph from Southwest

Location: Wuerzburg

Current Time: May 3, 2015 at 10:13:45 PM

Latest Report: May 3, 2015 at 9:00 PM


Visibility: 37 mi

Pressure: 29.73 "Hg

Humidity: 93%

Dew point: 58 °F

Location of WürzburgLocation

Historic Weather in Würzburg — Graph

°F

Würzburg temperature yesterday

Maximum temperature yesterday: 60 °F (at 4:00 PM)
Minimum temperature yesterday: 44 °F (at 7:00 AM)
Average temperature yesterday: 52 °F

Past Weeks' High & Low Weather Summary

 TemperatureHumidityPressure
High73 °F (Apr 21, 4:00 PM)97% (May 3, 8:00 AM)30.43 "Hg (May 3, 8:00 AM)
Low32 °F (Apr 19, 6:00 AM)22% (Apr 21, 4:00 PM)29.57 "Hg (Apr 27, 6:00 PM)
Average52 °F63%30.01 "Hg
* Reported Apr 18 9:00 PM — May 3 9:00 PM, Würzburg, Weather by CustomWeather, © 2015

Note: Actual official high and low records may vary slightly from our data, if they occured in-between our weather recording intervals... More about our weather records

Advertising

Würzburg weather history for previous 24 hours

 ConditionsComfort  
Time TempWeatherWind HumidityBarometerVisibility
9:00 PM
Sun, May 3
60 °FOvercast.2 mph93%29.73 "Hg37 mi
8:00 PM60 °FLight rain. Overcast.2 mph92%29.72 "Hg28 mi
7:00 PM61 °FLight rain. Overcast.3 mph93%29.72 "Hg22 mi
6:00 PM60 °FRain. Overcast.3 mph91%29.72 "Hg6 mi
5:00 PM60 °FLight rain. Overcast.7 mph84%29.72 "Hg19 mi
4:00 PM63 °FOvercast.6 mph76%29.73 "Hg28 mi
3:00 PM61 °FLight rain. Overcast.6 mph83%29.75 "Hg25 mi
2:00 PM61 °FLow clouds.5 mph84%29.75 "Hg34 mi
1:00 PM58 °FLow clouds.2 mph91%29.75 "Hg25 mi
12:00 PM56 °FLight rain. Low clouds.3 mph95%29.75 "Hg3 mi
11:00 AM56 °FLow clouds.5 mph89%29.76 "Hg6 mi
10:00 AM55 °FLow clouds.6 mph91%29.77 "Hg17 mi
9:00 AM52 °FLight rain. Low clouds.2 mph97%29.78 "Hg1 mi
8:00 AM51 °FLight rain. Low clouds.3 mph97%29.79 "Hg2 mi
7:00 AM50 °FLight rain. Low clouds.3 mph94%29.79 "Hg4 mi
6:00 AM50 °FRain. Overcast.1 mph96%29.79 "Hg4 mi
5:00 AM49 °FRain. Overcast.1 mph93%29.80 "Hg7 mi
4:00 AM50 °FLight rain. Overcast.2 mph89%29.81 "Hg9 mi
3:00 AM50 °FOvercast.2 mph86%29.82 "Hg16 mi
2:00 AM50 °FOvercast.1 mph85%29.85 "Hg16 mi
1:00 AM50 °FOvercast.1 mph85%29.87 "Hg16 mi
12:00 AM50 °FOvercast.2 mph84%29.89 "Hg19 mi
11:00 PM
Sat, May 2
50 °FOvercast.1 mph80%29.90 "Hg19 mi
10:00 PM51 °FPassing clouds.2 mph75%29.90 "Hg25 mi
Weather by CustomWeather, © 2015

See weather overviewHow to use our weather pages